This is the latest recevied weather packets stored in our database for station/object IW4DZV-13. If no packets are shown the sender has not sent any weather packets the latest 10 day(s).
| Time | Temp. | Humidity | Pressure | Rain* | Wind** | Luminosity | Snow |
|---|---|---|---|---|---|---|---|
| 1777779008 | 10° C | 74% | 1018.5 hPa | 0 mm | - | 0 W/m² | - |
| 1777778106 | 10° C | 74% | 1018.5 hPa | 0 mm | - | 0 W/m² | - |
| 1777777204 | 10.56° C | 73% | 1018.4 hPa | 0 mm | - | 0 W/m² | - |
| 1777776302 | 10.56° C | 71% | 1018.6 hPa | 0 mm | - | 0 W/m² | - |
| 1777775471 | 11.11° C | 70% | 1018.6 hPa | 0 mm | - | 0 W/m² | - |
| 1777774558 | 11.11° C | 69% | 1018.8 hPa | 0 mm | - | 0 W/m² | - |
| 1777773658 | 11.11° C | 69% | 1018.8 hPa | 0 mm | - | 0 W/m² | - |
| 1777772760 | 11.11° C | 69% | 1018.8 hPa | 0 mm | - | 0 W/m² | - |
| 1777771857 | 11.11° C | 69% | 1018.9 hPa | 0 mm | - | 0 W/m² | - |
| 1777770955 | 11.11° C | 68% | 1018.9 hPa | 0 mm | - | 0 W/m² | - |
| 1777770055 | 11.11° C | 68% | 1019 hPa | 0 mm | - | 0 W/m² | - |
| 1777769153 | 11.11° C | 67% | 1019.1 hPa | 0 mm | - | 0 W/m² | - |
| 1777768252 | 11.67° C | 67% | 1019.1 hPa | 0 mm | - | 0 W/m² | - |
| 1777767349 | 11.67° C | 66% | 1019.2 hPa | 0 mm | - | 0 W/m² | - |
| 1777766449 | 12.22° C | 64% | 1019.3 hPa | 0 mm | - | 0 W/m² | - |
| 1777765552 | 12.22° C | 64% | 1019.3 hPa | 0 mm | - | 0 W/m² | - |
| 1777764642 | 12.78° C | 62% | 1019.4 hPa | 0 mm | - | 0 W/m² | - |
| 1777763740 | 12.78° C | 61% | 1019.6 hPa | 0 mm | - | 0 W/m² | - |
| 1777762836 | 13.33° C | 59% | 1019.7 hPa | 0 mm | - | 0 W/m² | - |
| 1777761933 | 13.33° C | 60% | 1019.7 hPa | 0 mm | - | 0 W/m² | - |
| 1777761030 | 14.44° C | 59% | 1019.8 hPa | 0 mm | - | 0 W/m² | - |
| 1777760126 | 15° C | 57% | 1019.9 hPa | 0 mm | - | 0 W/m² | - |
| 1777759223 | 15° C | 56% | 1019.9 hPa | 0 mm | - | 0 W/m² | - |
| 1777758334 | 15.56° C | 55% | 1020 hPa | 0 mm | - | 0 W/m² | - |
| 1777757422 | 15.56° C | 55% | 1020 hPa | 0 mm | - | 0 W/m² | - |
* Rain since midnight (hover to see other rain measurements)
** Current wind speed in m/s (hover to see current wind gust speed)